ProjectID,Date,Electric Generation,Electric Utility Import,Facility Electric Load
,YYYY-MM-DD,kW,kW,kW
213,2014-11-01,0.0,,0.0
213,2014-11-02,0.0,,0.0
213,2014-11-03,0.0,,0.0
213,2014-11-04,0.0,,0.0
213,2014-11-05,0.0,,0.0
213,2014-11-06,0.0,,0.0
213,2014-11-07,0.0,,0.0
213,2014-11-08,0.0,,0.0
213,2014-11-09,0.0,,0.0
213,2014-11-10,0.0,,0.0
213,2014-11-11,0.0,,0.0
213,2014-11-12,0.0,,0.0
213,2014-11-13,0.0,,0.0
213,2014-11-14,0.0,,0.0
213,2014-11-15,0.0,,0.0
213,2014-11-16,0.0,,0.0
213,2014-11-17,0.0,,0.0
213,2014-11-18,0.041666666666666664,,0.041666666666666664
213,2014-11-19,68.20833333333333,,68.20833333333333
213,2014-11-20,62.458333333333336,,62.458333333333336
213,2014-11-21,62.791666666666664,,62.791666666666664
213,2014-11-22,59.541666666666664,,59.541666666666664
213,2014-11-23,44.791666666666664,,44.791666666666664
213,2014-11-24,32.333333333333336,,32.333333333333336
213,2014-11-25,28.75,,28.75
213,2014-11-26,0.20833333333333334,,0.20833333333333334
213,2014-11-27,0.041666666666666664,,0.041666666666666664
213,2014-11-28,0.08333333333333333,,0.08333333333333333
213,2014-11-29,0.08333333333333333,,0.08333333333333333
213,2014-11-30,0.041666666666666664,,0.041666666666666664
213,2014-12-01,1.875,,1.875
213,2014-12-02,17.291666666666668,,17.291666666666668
213,2014-12-03,8.166666666666666,,8.166666666666666
213,2014-12-04,52.916666666666664,,52.916666666666664
213,2014-12-05,12.583333333333334,,12.583333333333334
213,2014-12-06,5.5,,5.5
213,2014-12-07,57.75,,57.75
213,2014-12-08,22.125,,22.125
213,2014-12-09,4.25,,4.25
213,2014-12-10,12.625,,12.625
213,2014-12-11,26.25,,26.25
213,2014-12-12,40.083333333333336,,40.083333333333336
213,2014-12-13,46.333333333333336,,46.333333333333336
213,2014-12-14,35.875,,35.875
213,2014-12-15,54.75,,54.75
213,2014-12-16,8.75,,8.75
213,2014-12-17,24.375,,24.375
213,2014-12-18,4.625,,4.625
213,2014-12-19,27.208333333333332,,27.208333333333332
213,2014-12-20,13.416666666666666,,13.416666666666666
213,2014-12-21,11.166666666666666,,11.166666666666666
213,2014-12-22,12.666666666666666,,12.666666666666666
213,2014-12-23,8.916666666666666,,8.916666666666666
213,2014-12-24,4.125,,4.125
213,2014-12-25,29.375,,29.375
213,2014-12-26,55.75,,55.75
213,2014-12-27,51.5,,51.5
213,2014-12-28,11.708333333333334,,11.708333333333334
213,2014-12-29,48.875,,48.875
213,2014-12-30,38.916666666666664,,38.916666666666664
213,2014-12-31,31.875,,31.875
213,2015-01-01,57.5,,57.5
213,2015-01-02,22.833333333333332,,22.833333333333332
213,2015-01-03,11.458333333333334,,11.458333333333334
213,2015-01-04,1.8333333333333333,,1.8333333333333333
213,2015-01-05,52.375,,52.375
213,2015-01-06,7.375,,7.375
213,2015-01-07,30.958333333333332,,30.958333333333332
213,2015-01-08,60.708333333333336,,60.708333333333336
213,2015-01-09,13.125,,13.125
213,2015-01-10,50.5,,50.5
213,2015-01-11,20.375,,20.375
213,2015-01-12,3.2916666666666665,,3.2916666666666665
213,2015-01-13,57.916666666666664,,57.916666666666664
213,2015-01-14,38.625,,38.625
213,2015-01-15,66.0,,66.0
213,2015-01-16,38.208333333333336,,38.208333333333336
213,2015-01-17,66.25,,66.25
213,2015-01-18,7.333333333333333,,7.333333333333333
213,2015-01-19,28.833333333333332,,28.833333333333332
213,2015-01-20,37.208333333333336,,37.208333333333336
213,2015-01-21,46.625,,46.625
213,2015-01-22,48.583333333333336,,48.583333333333336
213,2015-01-23,70.79166666666667,,70.79166666666667
213,2015-01-24,0.08333333333333333,,0.08333333333333333
213,2015-01-25,1.7083333333333333,,1.7083333333333333
213,2015-01-26,0.4166666666666667,,0.4166666666666667
213,2015-01-27,1.2083333333333333,,1.2083333333333333
213,2015-01-28,2.4166666666666665,,2.4166666666666665
213,2015-01-29,1.875,,1.875
213,2015-01-30,0.5,,0.5
213,2015-01-31,1.375,,1.375
213,2015-02-01,1.125,,1.125
213,2015-02-02,0.041666666666666664,,0.041666666666666664
213,2015-02-03,0.2916666666666667,,0.2916666666666667
213,2015-02-04,0.125,,0.125
213,2015-02-05,0.375,,0.375
213,2015-02-06,0.7083333333333334,,0.7083333333333334
213,2015-02-07,0.4166666666666667,,0.4166666666666667
213,2015-02-08,0.4166666666666667,,0.4166666666666667
213,2015-02-09,0.041666666666666664,,0.041666666666666664
213,2015-02-10,0.08333333333333333,,0.08333333333333333
213,2015-02-11,0.125,,0.125
213,2015-02-12,0.08333333333333333,,0.08333333333333333
213,2015-02-13,0.25,,0.25
213,2015-02-14,0.041666666666666664,,0.041666666666666664
213,2015-02-15,0.3333333333333333,,0.3333333333333333
213,2015-02-16,0.375,,0.375
213,2015-02-17,0.25,,0.25
213,2015-02-18,0.375,,0.375
213,2015-02-19,0.4166666666666667,,0.4166666666666667
213,2015-02-20,0.6666666666666666,,0.6666666666666666
213,2015-02-21,0.125,,0.125
213,2015-02-22,0.125,,0.125
213,2015-02-23,0.625,,0.625
213,2015-02-24,0.7916666666666666,,0.7916666666666666
213,2015-02-25,0.625,,0.625
213,2015-02-26,0.4166666666666667,,0.4166666666666667
213,2015-02-27,0.8333333333333334,,0.8333333333333334
213,2015-02-28,1.0416666666666667,,1.0416666666666667
213,2015-03-01,0.08333333333333333,,0.08333333333333333
213,2015-03-02,0.3333333333333333,,0.3333333333333333
213,2015-03-03,0.5,,0.5
213,2015-03-04,0.041666666666666664,,0.041666666666666664
213,2015-03-05,0.08333333333333333,,0.08333333333333333
213,2015-03-06,0.5416666666666666,,0.5416666666666666
213,2015-03-07,0.7916666666666666,,0.7916666666666666
213,2015-03-08,1.0416666666666667,,1.0416666666666667
213,2015-03-09,4.791666666666667,,4.791666666666667
213,2015-03-10,7.625,,7.625
213,2015-03-11,53.416666666666664,,53.416666666666664
213,2015-03-12,110.08333333333333,,110.08333333333333
213,2015-03-13,100.20833333333333,,100.20833333333333
213,2015-03-14,21.041666666666668,,21.041666666666668
213,2015-03-15,45.5,,45.5
213,2015-03-16,73.91666666666667,,73.91666666666667
213,2015-03-17,67.75,,67.75
213,2015-03-18,104.41666666666667,,104.41666666666667
213,2015-03-19,128.625,,128.625
213,2015-03-20,22.791666666666668,,22.791666666666668
213,2015-03-21,23.583333333333332,,23.583333333333332
213,2015-03-22,126.45833333333333,,126.45833333333333
213,2015-03-23,130.33333333333334,,130.33333333333334
213,2015-03-24,119.08333333333333,,119.08333333333333
213,2015-03-25,69.04166666666667,,69.04166666666667
213,2015-03-26,27.916666666666668,,27.916666666666668
213,2015-03-27,48.166666666666664,,48.166666666666664
213,2015-03-28,80.20833333333333,,80.20833333333333
213,2015-03-29,134.79166666666666,,134.79166666666666
213,2015-03-30,68.70833333333333,,68.70833333333333
213,2015-03-31,55.916666666666664,,55.916666666666664
213,2015-04-01,129.16666666666666,,129.16666666666666
213,2015-04-02,118.375,,118.375
213,2015-04-03,22.875,,22.875
213,2015-04-04,122.625,,122.625
213,2015-04-05,92.91666666666667,,92.91666666666667
213,2015-04-06,115.79166666666667,,115.79166666666667
213,2015-04-07,26.041666666666668,,26.041666666666668
213,2015-04-08,26.291666666666668,,26.291666666666668
213,2015-04-09,23.541666666666668,,23.541666666666668
213,2015-04-10,32.916666666666664,,32.916666666666664
213,2015-04-11,108.125,,108.125
213,2015-04-12,135.0,,135.0
213,2015-04-13,116.625,,116.625
213,2015-04-14,64.75,,64.75
213,2015-04-15,126.16666666666667,,126.16666666666667
213,2015-04-16,125.875,,125.875
213,2015-04-17,57.958333333333336,,57.958333333333336
213,2015-04-18,130.25,,130.25
213,2015-04-19,125.58333333333333,,125.58333333333333
213,2015-04-20,17.125,,17.125
213,2015-04-21,99.875,,99.875
213,2015-04-22,60.791666666666664,,60.791666666666664
213,2015-04-23,78.25,,78.25
213,2015-04-24,62.958333333333336,,62.958333333333336
213,2015-04-25,145.54166666666666,,145.54166666666666
213,2015-04-26,100.75,,100.75
213,2015-04-27,84.45833333333333,,84.45833333333333
213,2015-04-28,124.58333333333333,,124.58333333333333
213,2015-04-29,141.375,,141.375
213,2015-04-30,121.70833333333333,,121.70833333333333
213,2015-05-01,73.375,,73.375
213,2015-05-02,124.625,,124.625
213,2015-05-03,116.45833333333333,,116.45833333333333
213,2015-05-04,132.125,,132.125
213,2015-05-05,116.95833333333333,,116.95833333333333
213,2015-05-06,62.541666666666664,,62.541666666666664
213,2015-05-07,136.91666666666666,,136.91666666666666
213,2015-05-08,131.95833333333334,,131.95833333333334
213,2015-05-09,106.25,,106.25
213,2015-05-10,131.45833333333334,,131.45833333333334
213,2015-05-11,108.875,,108.875
213,2015-05-12,95.125,,95.125
213,2015-05-13,90.79166666666667,,90.79166666666667
213,2015-05-14,140.875,,140.875
213,2015-05-15,105.0,,105.0
213,2015-05-16,85.29166666666667,,85.29166666666667
213,2015-05-17,110.79166666666667,,110.79166666666667
213,2015-05-18,36.666666666666664,,36.666666666666664
213,2015-05-19,92.20833333333333,,92.20833333333333
213,2015-05-20,110.25,,110.25
213,2015-05-21,104.45833333333333,,104.45833333333333
213,2015-05-22,125.16666666666667,,125.16666666666667
213,2015-05-23,155.5,,155.5
213,2015-05-24,124.33333333333333,,124.33333333333333
213,2015-05-25,127.66666666666667,,127.66666666666667
213,2015-05-26,96.625,,96.625
213,2015-05-27,89.16666666666667,,89.16666666666667
213,2015-05-28,114.25,,114.25
213,2015-05-29,137.83333333333334,,137.83333333333334
213,2015-05-30,135.625,,135.625
213,2015-05-31,44.916666666666664,,44.916666666666664
213,2015-06-01,25.5,,25.5
213,2015-06-02,38.708333333333336,,38.708333333333336
213,2015-06-03,138.125,,138.125
213,2015-06-04,108.20833333333333,,108.20833333333333
213,2015-06-05,113.375,,113.375
213,2015-06-06,121.45833333333333,,121.45833333333333
213,2015-06-07,140.91666666666666,,140.91666666666666
213,2015-06-08,86.125,,86.125
213,2015-06-09,98.25,,98.25
213,2015-06-10,130.08333333333334,,130.08333333333334
213,2015-06-11,110.25,,110.25
213,2015-06-12,113.375,,113.375
213,2015-06-13,121.08333333333333,,121.08333333333333
213,2015-06-14,132.04166666666666,,132.04166666666666
213,2015-06-15,51.041666666666664,,51.041666666666664
213,2015-06-16,69.29166666666667,,69.29166666666667
213,2015-06-17,124.125,,124.125
213,2015-06-18,31.625,,31.625
213,2015-06-19,101.79166666666667,,101.79166666666667
213,2015-06-20,39.041666666666664,,39.041666666666664
213,2015-06-21,98.33333333333333,,98.33333333333333
213,2015-06-22,143.0,,143.0
213,2015-06-23,86.83333333333333,,86.83333333333333
213,2015-06-24,132.45833333333334,,132.45833333333334
213,2015-06-25,109.91666666666667,,109.91666666666667
213,2015-06-26,114.95833333333333,,114.95833333333333
213,2015-06-27,30.208333333333332,,30.208333333333332
213,2015-06-28,41.708333333333336,,41.708333333333336
213,2015-06-29,95.875,,95.875
213,2015-06-30,35.25,,35.25
213,2015-07-01,103.33333333333333,,103.33333333333333
213,2015-07-02,111.75,,111.75
213,2015-07-03,137.625,,137.625
213,2015-07-04,53.083333333333336,,53.083333333333336
213,2015-07-05,126.25,,126.25
213,2015-07-06,88.66666666666667,,88.66666666666667
213,2015-07-07,93.75,,93.75
213,2015-07-08,96.66666666666667,,96.66666666666667
213,2015-07-09,67.91666666666667,,67.91666666666667
213,2015-07-10,120.95833333333333,,120.95833333333333
213,2015-07-11,135.29166666666666,,135.29166666666666
213,2015-07-12,115.29166666666667,,115.29166666666667
213,2015-07-13,111.41666666666667,,111.41666666666667
213,2015-07-14,67.41666666666667,,67.41666666666667
213,2015-07-15,73.0,,73.0
213,2015-07-16,136.5,,136.5
213,2015-07-17,118.91666666666667,,118.91666666666667
213,2015-07-18,76.66666666666667,,76.66666666666667
213,2015-07-19,124.54166666666667,,124.54166666666667
213,2015-07-20,113.16666666666667,,113.16666666666667
213,2015-07-21,92.08333333333333,,92.08333333333333
213,2015-07-22,135.45833333333334,,135.45833333333334
213,2015-07-23,130.41666666666666,,130.41666666666666
213,2015-07-24,115.45833333333333,,115.45833333333333
213,2015-07-25,121.79166666666667,,121.79166666666667
213,2015-07-26,80.125,,80.125
213,2015-07-27,117.5,,117.5
213,2015-07-28,120.66666666666667,,120.66666666666667
213,2015-07-29,124.125,,124.125
213,2015-07-30,60.083333333333336,,60.083333333333336
213,2015-07-31,134.08333333333334,,134.08333333333334
213,2015-08-01,116.95833333333333,,116.95833333333333
213,2015-08-02,120.41666666666667,,120.41666666666667
213,2015-08-03,112.33333333333333,,112.33333333333333
213,2015-08-04,109.5,,109.5
213,2015-08-05,106.95833333333333,,106.95833333333333
213,2015-08-06,107.375,,107.375
213,2015-08-07,112.5,,112.5
213,2015-08-08,101.04166666666667,,101.04166666666667
213,2015-08-09,117.91666666666667,,117.91666666666667
213,2015-08-10,48.291666666666664,,48.291666666666664
213,2015-08-11,47.333333333333336,,47.333333333333336
213,2015-08-12,118.41666666666667,,118.41666666666667
213,2015-08-13,121.58333333333333,,121.58333333333333
213,2015-08-14,114.29166666666667,,114.29166666666667
213,2015-08-15,105.29166666666667,,105.29166666666667
213,2015-08-16,116.66666666666667,,116.66666666666667
213,2015-08-17,105.83333333333333,,105.83333333333333
213,2015-08-18,100.66666666666667,,100.66666666666667
213,2015-08-19,85.20833333333333,,85.20833333333333
213,2015-08-20,69.33333333333333,,69.33333333333333
213,2015-08-21,114.08333333333333,,114.08333333333333
213,2015-08-22,111.375,,111.375
213,2015-08-23,108.5,,108.5
213,2015-08-24,100.75,,100.75
213,2015-08-25,106.625,,106.625
213,2015-08-26,110.66666666666667,,110.66666666666667
213,2015-08-27,97.0,,97.0
213,2015-08-28,94.875,,94.875
213,2015-08-29,105.25,,105.25
213,2015-08-30,82.08333333333333,,82.08333333333333
213,2015-08-31,84.25,,84.25
213,2015-09-01,104.91666666666667,,104.91666666666667
213,2015-09-02,101.5,,101.5
213,2015-09-03,86.91666666666667,,86.91666666666667
213,2015-09-04,67.25,,67.25
213,2015-09-05,112.58333333333333,,112.58333333333333
213,2015-09-06,110.54166666666667,,110.54166666666667
213,2015-09-07,104.70833333333333,,104.70833333333333
213,2015-09-08,101.91666666666667,,101.91666666666667
213,2015-09-09,92.04166666666667,,92.04166666666667
213,2015-09-10,25.458333333333332,,25.458333333333332
213,2015-09-11,83.0,,83.0
213,2015-09-12,41.583333333333336,,41.583333333333336
213,2015-09-13,70.08333333333333,,70.08333333333333
213,2015-09-14,109.41666666666667,,109.41666666666667
213,2015-09-15,107.5,,107.5
213,2015-09-16,104.70833333333333,,104.70833333333333
213,2015-09-17,103.95833333333333,,103.95833333333333
213,2015-09-18,100.95833333333333,,100.95833333333333
213,2015-09-19,95.91666666666667,,95.91666666666667
213,2015-09-20,100.41666666666667,,100.41666666666667
213,2015-09-21,88.04166666666667,,88.04166666666667
213,2015-09-22,55.708333333333336,,55.708333333333336
213,2015-09-23,104.125,,104.125
213,2015-09-24,101.08333333333333,,101.08333333333333
213,2015-09-25,80.16666666666667,,80.16666666666667
213,2015-09-26,69.58333333333333,,69.58333333333333
213,2015-09-27,95.875,,95.875
213,2015-09-28,58.583333333333336,,58.583333333333336
213,2015-09-29,42.916666666666664,,42.916666666666664
213,2015-09-30,27.875,,27.875
213,2015-10-01,45.208333333333336,,45.208333333333336
213,2015-10-02,22.166666666666668,,22.166666666666668
213,2015-10-03,19.208333333333332,,19.208333333333332
213,2015-10-04,92.70833333333333,,92.70833333333333
213,2015-10-05,95.45833333333333,,95.45833333333333
213,2015-10-06,81.29166666666667,,81.29166666666667
213,2015-10-07,90.70833333333333,,90.70833333333333
213,2015-10-08,86.25,,86.25
213,2015-10-09,29.0,,29.0
213,2015-10-10,94.79166666666667,,94.79166666666667
213,2015-10-11,89.95833333333333,,89.95833333333333
213,2015-10-12,89.25,,89.25
213,2015-10-13,38.125,,38.125
213,2015-10-14,73.875,,73.875
213,2015-10-15,57.791666666666664,,57.791666666666664
213,2015-10-16,68.33333333333333,,68.33333333333333
213,2015-10-17,75.54166666666667,,75.54166666666667
213,2015-10-18,57.875,,57.875
213,2015-10-19,77.79166666666667,,77.79166666666667
213,2015-10-20,73.25,,73.25
213,2015-10-21,72.41666666666667,,72.41666666666667
213,2015-10-22,50.208333333333336,,50.208333333333336
213,2015-10-23,84.95833333333333,,84.95833333333333
213,2015-10-24,42.291666666666664,,42.291666666666664
213,2015-10-25,42.916666666666664,,42.916666666666664
213,2015-10-26,77.54166666666667,,77.54166666666667
213,2015-10-27,63.75,,63.75
213,2015-10-28,5.625,,5.625
213,2015-10-29,54.666666666666664,,54.666666666666664
213,2015-10-30,74.16666666666667,,74.16666666666667
213,2015-10-31,71.29166666666667,,71.29166666666667
213,2015-11-01,30.958333333333332,,30.958333333333332
213,2015-11-02,54.666666666666664,,54.666666666666664
213,2015-11-03,69.29166666666667,,69.29166666666667
213,2015-11-04,67.45833333333333,,67.45833333333333
213,2015-11-05,28.041666666666668,,28.041666666666668
213,2015-11-06,30.708333333333332,,30.708333333333332
213,2015-11-07,24.541666666666668,,24.541666666666668
213,2015-11-08,64.125,,64.125
213,2015-11-09,62.541666666666664,,62.541666666666664
213,2015-11-10,13.666666666666666,,13.666666666666666
213,2015-11-11,23.5,,23.5
213,2015-11-12,3.875,,3.875
213,2015-11-13,40.166666666666664,,40.166666666666664
213,2015-11-14,31.041666666666668,,31.041666666666668
213,2015-11-15,62.083333333333336,,62.083333333333336
213,2015-11-16,60.208333333333336,,60.208333333333336
213,2015-11-17,66.20833333333333,,66.20833333333333
213,2015-11-18,36.875,,36.875
213,2015-11-19,4.958333333333333,,4.958333333333333
213,2015-11-20,63.583333333333336,,63.583333333333336
213,2015-11-21,63.791666666666664,,63.791666666666664
213,2015-11-22,37.083333333333336,,37.083333333333336
213,2015-11-23,63.875,,63.875
213,2015-11-24,50.916666666666664,,50.916666666666664
213,2015-11-25,57.916666666666664,,57.916666666666664
213,2015-11-26,42.333333333333336,,42.333333333333336
213,2015-11-27,47.625,,47.625
213,2015-11-28,6.208333333333333,,6.208333333333333
213,2015-11-29,52.875,,52.875
213,2015-11-30,30.916666666666668,,30.916666666666668
213,2015-12-01,4.208333333333333,,4.208333333333333
213,2015-12-02,6.875,,6.875
213,2015-12-03,27.0,,27.0
213,2015-12-04,42.166666666666664,,42.166666666666664
213,2015-12-05,54.125,,54.125
213,2015-12-06,53.791666666666664,,53.791666666666664
213,2015-12-07,45.416666666666664,,45.416666666666664
213,2015-12-08,21.958333333333332,,21.958333333333332
213,2015-12-09,17.833333333333332,,17.833333333333332
213,2015-12-10,41.75,,41.75
213,2015-12-11,30.25,,30.25
213,2015-12-12,23.166666666666668,,23.166666666666668
213,2015-12-13,31.291666666666668,,31.291666666666668
213,2015-12-14,6.625,,6.625
213,2015-12-15,38.625,,38.625
213,2015-12-16,40.166666666666664,,40.166666666666664
213,2015-12-17,2.7916666666666665,,2.7916666666666665
213,2015-12-18,23.833333333333332,,23.833333333333332
213,2015-12-19,31.541666666666668,,31.541666666666668
213,2015-12-20,46.5,,46.5
213,2015-12-21,15.583333333333334,,15.583333333333334
213,2015-12-22,6.375,,6.375
213,2015-12-23,5.041666666666667,,5.041666666666667
213,2015-12-24,16.875,,16.875
213,2015-12-25,29.75,,29.75
213,2015-12-26,13.708333333333334,,13.708333333333334
213,2015-12-27,16.0,,16.0
213,2015-12-28,35.666666666666664,,35.666666666666664
213,2015-12-29,1.875,,1.875
213,2015-12-30,1.7916666666666667,,1.7916666666666667
213,2015-12-31,26.958333333333332,,26.958333333333332
213,2016-01-01,10.125,,10.125
213,2016-01-02,13.0,,13.0
213,2016-01-03,34.166666666666664,,34.166666666666664
213,2016-01-04,56.458333333333336,,56.458333333333336
213,2016-01-05,39.0,,39.0
213,2016-01-06,57.416666666666664,,57.416666666666664
213,2016-01-07,44.708333333333336,,44.708333333333336
213,2016-01-08,27.916666666666668,,27.916666666666668
213,2016-01-09,10.75,,10.75
213,2016-01-10,11.5,,11.5
213,2016-01-11,58.916666666666664,,58.916666666666664
213,2016-01-12,26.875,,26.875
213,2016-01-13,48.5,,48.5
213,2016-01-14,21.333333333333332,,21.333333333333332
213,2016-01-15,27.041666666666668,,27.041666666666668
213,2016-01-16,25.125,,25.125
213,2016-01-17,14.041666666666666,,14.041666666666666
213,2016-01-18,60.083333333333336,,60.083333333333336
213,2016-01-19,54.25,,54.25
213,2016-01-20,45.583333333333336,,45.583333333333336
213,2016-01-21,64.54166666666667,,64.54166666666667
213,2016-01-22,36.958333333333336,,36.958333333333336
213,2016-01-23,3.6666666666666665,,3.6666666666666665
213,2016-01-24,63.083333333333336,,63.083333333333336
213,2016-01-25,50.166666666666664,,50.166666666666664
213,2016-01-26,33.125,,33.125
213,2016-01-27,53.0,,53.0
213,2016-01-28,68.66666666666667,,68.66666666666667
213,2016-01-29,22.625,,22.625
213,2016-01-30,59.75,,59.75
213,2016-01-31,57.916666666666664,,57.916666666666664
213,2016-02-01,23.75,,23.75
213,2016-02-02,68.58333333333333,,68.58333333333333
213,2016-02-03,4.166666666666667,,4.166666666666667
213,2016-02-04,34.625,,34.625
213,2016-02-05,36.375,,36.375
213,2016-02-06,69.41666666666667,,69.41666666666667
213,2016-02-07,72.66666666666667,,72.66666666666667
213,2016-02-08,26.666666666666668,,26.666666666666668
213,2016-02-09,19.0,,19.0
213,2016-02-10,36.125,,36.125
213,2016-02-11,59.625,,59.625
213,2016-02-12,57.5,,57.5
213,2016-02-13,90.79166666666667,,90.79166666666667
213,2016-02-14,92.54166666666667,,92.54166666666667
213,2016-02-15,13.708333333333334,,13.708333333333334
213,2016-02-16,8.75,,8.75
213,2016-02-17,18.25,,18.25
213,2016-02-18,94.29166666666667,,94.29166666666667
213,2016-02-19,55.25,,55.25
213,2016-02-20,75.95833333333333,,75.95833333333333
213,2016-02-21,39.958333333333336,,39.958333333333336
213,2016-02-22,90.79166666666667,,90.79166666666667
213,2016-02-23,14.375,,14.375
213,2016-02-24,5.958333333333333,,5.958333333333333
213,2016-02-25,21.916666666666668,,21.916666666666668
213,2016-02-26,93.625,,93.625
213,2016-02-27,97.375,,97.375
213,2016-02-28,87.66666666666667,,87.66666666666667
213,2016-02-29,51.25,,51.25
213,2016-03-01,84.20833333333333,,84.20833333333333
213,2016-03-02,99.20833333333333,,99.20833333333333
213,2016-03-03,96.0,,96.0
213,2016-03-04,64.375,,64.375
213,2016-03-05,77.79166666666667,,77.79166666666667
213,2016-03-06,84.95833333333333,,84.95833333333333
213,2016-03-07,95.875,,95.875
213,2016-03-08,61.291666666666664,,61.291666666666664
213,2016-03-09,94.83333333333333,,94.83333333333333
213,2016-03-10,28.208333333333332,,28.208333333333332
213,2016-03-11,96.83333333333333,,96.83333333333333
213,2016-03-12,102.79166666666667,,102.79166666666667
213,2016-03-13,52.916666666666664,,52.916666666666664
213,2016-03-14,19.041666666666668,,19.041666666666668
213,2016-03-15,49.5,,49.5
213,2016-03-16,83.95833333333333,,83.95833333333333
213,2016-03-17,77.95833333333333,,77.95833333333333
213,2016-03-18,71.45833333333333,,71.45833333333333
213,2016-03-19,101.83333333333333,,101.83333333333333
213,2016-03-20,62.083333333333336,,62.083333333333336
213,2016-03-21,111.875,,111.875
213,2016-03-22,107.70833333333333,,107.70833333333333
213,2016-03-23,61.541666666666664,,61.541666666666664
213,2016-03-24,101.95833333333333,,101.95833333333333
213,2016-03-25,61.833333333333336,,61.833333333333336
213,2016-03-26,119.54166666666667,,119.54166666666667
213,2016-03-27,56.666666666666664,,56.666666666666664
213,2016-03-28,38.625,,38.625
213,2016-03-29,129.375,,129.375
213,2016-03-30,122.08333333333333,,122.08333333333333
213,2016-03-31,83.33333333333333,,83.33333333333333
213,2016-04-01,51.875,,51.875
213,2016-04-02,43.958333333333336,,43.958333333333336
213,2016-04-03,39.291666666666664,,39.291666666666664
213,2016-04-04,3.625,,3.625
213,2016-04-05,117.54166666666667,,117.54166666666667
213,2016-04-06,100.75,,100.75
213,2016-04-07,37.333333333333336,,37.333333333333336
213,2016-04-08,49.0,,49.0
213,2016-04-09,57.166666666666664,,57.166666666666664
213,2016-04-10,128.29166666666666,,128.29166666666666
213,2016-04-11,19.791666666666668,,19.791666666666668
213,2016-04-12,95.75,,95.75